TimeEST,TemperatureF,Dew PointF,Humidity,Sea Level PressureIn,VisibilityMPH,Wind Direction,Wind SpeedMPH,Gust SpeedMPH,PrecipitationIn,Events,Conditions,WindDirDegrees,DateUTC
12:15 AM,44.6,32.9,64,30.43,10.0,East,10.4,-,N/A,,Clear,90,2013-11-05 05:15:00
12:35 AM,45.0,32.5,62,30.43,10.0,East,10.4,-,N/A,,Clear,90,2013-11-05 05:35:00
12:55 AM,45.0,32.5,62,30.42,10.0,East,9.2,-,N/A,,Clear,80,2013-11-05 05:55:00
1:15 AM,44.6,32.7,63,30.42,10.0,East,9.2,-,N/A,,Clear,80,2013-11-05 06:15:00
1:35 AM,44.6,32.5,63,30.44,10.0,ENE,5.8,-,N/A,,Clear,70,2013-11-05 06:35:00
1:55 AM,43.9,32.9,65,30.44,10.0,East,9.2,-,N/A,,Clear,100,2013-11-05 06:55:00
2:15 AM,43.5,32.9,66,30.44,10.0,East,8.1,-,N/A,,Clear,80,2013-11-05 07:15:00
2:35 AM,43.7,32.4,64,30.44,10.0,ENE,5.8,-,N/A,,Clear,70,2013-11-05 07:35:00
2:55 AM,42.8,32.2,66,30.44,10.0,ENE,6.9,-,N/A,,Clear,70,2013-11-05 07:55:00
3:15 AM,42.8,32.0,66,30.45,10.0,East,8.1,-,N/A,,Clear,80,2013-11-05 08:15:00
3:35 AM,42.4,32.0,67,30.47,10.0,East,8.1,-,N/A,,Clear,90,2013-11-05 08:35:00
3:55 AM,42.1,32.4,68,30.45,10.0,East,9.2,-,N/A,,Clear,90,2013-11-05 08:55:00
4:15 AM,42.1,32.0,67,30.45,10.0,East,10.4,-,N/A,,Clear,90,2013-11-05 09:15:00
4:35 AM,41.7,32.0,68,30.45,10.0,East,8.1,-,N/A,,Clear,90,2013-11-05 09:35:00
4:55 AM,41.9,32.0,68,30.45,10.0,East,5.8,-,N/A,,Clear,80,2013-11-05 09:55:00
5:15 AM,41.9,32.0,68,30.45,10.0,East,10.4,-,N/A,,Clear,90,2013-11-05 10:15:00
5:35 AM,41.9,32.0,68,30.45,10.0,East,5.8,-,N/A,,Clear,90,2013-11-05 10:35:00
5:55 AM,41.5,32.0,69,30.47,10.0,East,4.6,-,N/A,,Clear,90,2013-11-05 10:55:00
6:15 AM,41.5,32.0,69,30.46,10.0,East,6.9,-,N/A,,Clear,80,2013-11-05 11:15:00
6:35 AM,41.2,32.0,70,30.47,10.0,East,6.9,-,N/A,,Clear,80,2013-11-05 11:35:00
6:55 AM,41.9,31.8,67,30.48,10.0,East,6.9,-,N/A,,Clear,100,2013-11-05 11:55:00
7:15 AM,41.2,32.0,70,30.48,10.0,ESE,6.9,-,N/A,,Clear,110,2013-11-05 12:15:00
7:35 AM,41.2,32.0,70,30.48,10.0,East,11.5,-,N/A,,Clear,100,2013-11-05 12:35:00
7:55 AM,41.7,32.0,68,30.48,10.0,East,10.4,17.3,N/A,,Clear,80,2013-11-05 12:55:00
8:15 AM,42.4,32.4,68,30.49,10.0,East,8.1,-,N/A,,Clear,80,2013-11-05 13:15:00
8:35 AM,44.6,32.9,64,30.49,10.0,East,8.1,-,N/A,,Clear,90,2013-11-05 13:35:00
8:55 AM,45.1,33.1,63,30.48,10.0,East,10.4,-,N/A,,Clear,90,2013-11-05 13:55:00
9:15 AM,45.7,32.9,61,30.48,10.0,East,10.4,-,N/A,,Clear,90,2013-11-05 14:15:00
9:35 AM,46.9,33.3,59,30.47,10.0,East,10.4,-,N/A,,Clear,90,2013-11-05 14:35:00
9:55 AM,47.8,33.6,58,30.46,10.0,East,10.4,-,N/A,,Clear,100,2013-11-05 14:55:00
10:15 AM,50.0,34.2,55,30.47,10.0,East,9.2,-,N/A,,Clear,100,2013-11-05 15:15:00
10:35 AM,50.2,33.4,53,30.47,10.0,ESE,9.2,-,N/A,,Clear,110,2013-11-05 15:35:00
10:55 AM,51.1,34.2,52,30.47,10.0,ESE,9.2,-,N/A,,Clear,120,2013-11-05 15:55:00
11:15 AM,51.8,34.7,52,30.46,10.0,East,10.4,-,N/A,,Clear,90,2013-11-05 16:15:00
11:35 AM,53.1,34.3,49,30.45,10.0,ESE,10.4,-,N/A,,Clear,110,2013-11-05 16:35:00
11:55 AM,55.9,36.3,48,30.44,10.0,East,9.2,-,N/A,,Clear,100,2013-11-05 16:55:00
12:15 PM,56.3,35.2,45,30.43,10.0,East,6.9,-,N/A,,Clear,100,2013-11-05 17:15:00
12:35 PM,59.0,34.3,40,30.42,10.0,SE,9.2,-,N/A,,Clear,130,2013-11-05 17:35:00
12:55 PM,59.9,34.7,39,30.41,10.0,SE,6.9,-,N/A,,Clear,140,2013-11-05 17:55:00
1:15 PM,60.1,34.3,38,30.41,10.0,East,5.8,-,N/A,,Clear,100,2013-11-05 18:15:00
1:35 PM,59.4,34.2,39,30.40,10.0,East,6.9,-,N/A,,Clear,90,2013-11-05 18:35:00
1:55 PM,60.1,34.7,39,30.40,10.0,ESE,6.9,-,N/A,,Clear,110,2013-11-05 18:55:00
2:15 PM,61.0,34.0,36,30.39,10.0,ESE,6.9,-,N/A,,Clear,110,2013-11-05 19:15:00
2:35 PM,62.1,34.2,35,30.39,10.0,ESE,5.8,-,N/A,,Clear,120,2013-11-05 19:35:00
2:55 PM,61.5,34.0,36,30.39,10.0,SE,5.8,-,N/A,,Clear,130,2013-11-05 19:55:00
3:15 PM,62.6,33.1,33,30.39,10.0,East,6.9,-,N/A,,Clear,90,2013-11-05 20:15:00
3:35 PM,62.8,33.6,34,30.38,10.0,East,5.8,-,N/A,,Clear,90,2013-11-05 20:35:00
3:55 PM,61.5,34.3,36,30.37,10.0,East,5.8,-,N/A,,Clear,100,2013-11-05 20:55:00
4:15 PM,61.9,34.9,36,30.37,10.0,East,4.6,-,N/A,,Clear,90,2013-11-05 21:15:00
4:35 PM,61.2,32.0,33,30.38,10.0,Calm,Calm,-,N/A,,Clear,0,2013-11-05 21:35:00
4:55 PM,60.1,32.0,35,30.38,10.0,Calm,Calm,-,N/A,,Clear,0,2013-11-05 21:55:00
5:15 PM,59.0,32.5,37,30.37,10.0,Calm,Calm,-,N/A,,Clear,0,2013-11-05 22:15:00
5:35 PM,56.5,35.8,46,30.38,10.0,Calm,Calm,-,N/A,,Clear,0,2013-11-05 22:35:00
5:55 PM,54.7,32.9,44,30.38,10.0,ESE,5.8,-,N/A,,Clear,120,2013-11-05 22:55:00
6:15 PM,55.2,30.9,40,30.39,10.0,East,8.1,-,N/A,,Clear,90,2013-11-05 23:15:00
6:35 PM,54.3,32.0,43,30.39,7.0,East,8.1,-,N/A,,Clear,90,2013-11-05 23:35:00
6:55 PM,53.4,34.2,48,30.39,5.0,East,9.2,-,N/A,,Haze,90,2013-11-05 23:55:00
7:15 PM,53.6,35.6,51,30.39,5.0,East,8.1,-,N/A,,Haze,90,2013-11-06 00:15:00
7:35 PM,53.1,35.1,50,30.39,4.0,East,9.2,-,N/A,,Haze,90,2013-11-06 00:35:00
7:55 PM,52.0,34.7,52,30.40,3.0,East,6.9,-,N/A,,Haze,80,2013-11-06 00:55:00
8:15 PM,51.8,34.7,52,30.40,4.0,East,4.6,-,N/A,,Haze,80,2013-11-06 01:15:00
8:35 PM,49.3,34.9,58,30.40,10.0,Calm,Calm,-,N/A,,Clear,0,2013-11-06 01:35:00
8:55 PM,49.8,36.1,59,30.40,10.0,East,4.6,-,N/A,,Clear,80,2013-11-06 01:55:00
9:15 PM,50.9,38.5,62,30.40,10.0,East,3.5,-,N/A,,Clear,80,2013-11-06 02:15:00
9:35 PM,47.5,37.6,69,30.40,10.0,Calm,Calm,-,N/A,,Clear,0,2013-11-06 02:35:00
9:55 PM,47.7,38.5,70,30.40,10.0,Calm,Calm,-,N/A,,Clear,0,2013-11-06 02:55:00
10:15 PM,45.5,39.2,79,30.40,10.0,East,4.6,-,N/A,,Clear,90,2013-11-06 03:15:00
10:35 PM,47.1,41.4,80,30.39,10.0,East,3.5,-,N/A,,Clear,100,2013-11-06 03:35:00
10:55 PM,45.7,40.8,83,30.39,10.0,Calm,Calm,-,N/A,,Clear,0,2013-11-06 03:55:00
11:15 PM,47.8,43.5,85,30.38,10.0,Calm,Calm,-,N/A,,Clear,0,2013-11-06 04:15:00
11:35 PM,46.9,43.7,88,30.37,10.0,Calm,Calm,-,N/A,,Clear,0,2013-11-06 04:35:00
11:55 PM,47.1,44.6,91,30.37,10.0,Calm,Calm,-,N/A,,Clear,0,2013-11-06 04:55:00